Location: Eaton
(41.3139°N, 82.0207°W)
Time: 00:28:53
(UTC+00:00)

Landsat 7 - Pass Details

Date: 17 June 2021
Orbit: 701 x 703 km, 98.0° (Epoch: 02 August)

Event Time Altitude Azimuth Distance (km) Brightness Sun altitude
Exits shadow 02:29:03 11° 178° (S) 2,095 5.8 -13.0°
Maximum altitude 02:33:35 62° 259° (W) 791 4.2 -13.6°
Drops below altitude 10° 02:38:19 10° 340° (NNW) 2,179 7.5 -14.2°
Sets 02:40:36 0° 344° (NNW) 3,102 8.4 -14.4°
